National Oceanic Atmosphere Administration National Weather Service Headquarters National Weather Service Headquarters
NOAA logo WFO Anchorage Scalable transition graphic NWS logo
Transition from title bar to navgation bar   Aviation Weather 02 AKDT 
blankspace Home   |   Mobile   |   Social Media   |   Mesonet   |   Surface Map   |   Radar   |   Submit Storm Reports   |   News =10 GMT 

LocalForecast by City, St or Zip Code

spacer

Forecasts/Products
  Public
  Forecast Discussion
    - With Glossary
  Aviation
  Marine
  Hydrology(RFC)
  Rivers & Lakes AHPS
  Ice Desk
  TV Weather
  Fire Weather
  Avalanche
  Travel 511
  Graphical
  xml logo RSS Feeds
  Marine FTPMail

spacer

Data
  Mesonet
  Model Graphics
  Local Model
  Observations
  Marine Obs
  Satellite/Radar
  Vent Factor
  Soaring Index
  Weather Links

spacer

Climate
  PAFC Climate
  Interactive Climate
  PAFC Records
  Local
  National
  More

spacer

Outreach
  About Us
  Community Outreach
  Kids' Page
  Tour/Speaker Request
  Weather Classroom
  Social Media

spacer

Reports
  COOP Observers
  Local Storm Reports
  Spotter Page
  Submit a Storm Report

spacer

Miscellaneous
  Archived Alaska Weather Stories
  Student Career Opportunities
  Research Papers

spacer

Print Friendly/
Low Bandwidth

  Public Forecasts
  Marine Forecasts

spacer

Contact Us
  mailto pafcweb

spacer

Facebook Follow the National Weather Service in Alaska on Twitter
USA.gov is the U.S. government's official web portal to all federal, state and local government web resources and services.


 ICAO ID:   AAWU Graphics

Internet access to TAFs and METAR observations is for planning purposes only. We can not guarantee the timeliness of internet products. Before flying please get a formal pilot briefing (1-800-992-7433) and ALWAYS file a Flight Plan!Pilot briefings are provided to licensed aircraft pilots, ONLY! Others may not use the above number to obtain weather information.

Check out the Key to TAFs and METARs for help with decoding the information.

A 12 hour summary of TAFs can be found here.

PANC TAF
PANC 310917Z 3109/0112  35006KT P6SM SCT050 BKN080
     FM311800 35012G20KT P6SM SCT100
     FM010400 34012KT P6SM SKC
     FM010800 36006KT P6SM SKC=




METAR PANC 310953Z VRB05KT 10SM FEW080 BKN100 07/M03 A2942 RMK AO2
     SLP962 T00721028 $=
METAR PANC 310853Z VRB05KT 10SM FEW070 BKN085 08/M03 A2941 RMK AO2
     SLP959 T00781033 401390061 53005 $=
METAR PANC 310853Z VRB05KT 10SM FEW070 BKN085 08/M03 A2941=
METAR PANC 310753Z 05009KT 010V080 10SM FEW075 BKN090 BKN130 08/M02
 A2940 RMK AO2 SLP956 T00831022 $=
METAR PANC 310753Z 05009KT 010V080 10SM FEW075 BKN090 BKN130 08/M02
     A2940=
METAR PANC 310653Z 33013G23KT 10SM FEW075 BKN090 BKN130 09/M02 A2939 RMK
     AO2 SLP954 T00891022 $=
METAR PANC 310653Z 33013G23KT 10SM FEW075 BKN090 BKN130 09/M02 A2939=


National Weather Service
Anchorage Forecast Office
6930 Sand Lake Road
Anchorage, Ak 99502
(907) 266-5105 M-F/7-5pm
About Us
Career Opportunities
Glossary
Disclaimer
Privacy Policy
Credits
Alaska Weather Information Line:
1-800-472-0391